| time (UTC) | temp C | wind direction | speed KPH | gust KPH | rain 1hr cm | rain 24hr cm | rain mn cm | humidity % | barometer mb |
| 20260508102233 | 1 | 275 | 3.2 | 3.2 | 0.00 | 0.00 | 0.00 | 94 | 1019.0 |
| 20260508101730 | 1 | 267 | 1.6 | 1.6 | 0.00 | 0.00 | 0.00 | 94 | 1019.0 |
| 20260508101228 | 1 | 267 | 1.6 | 1.6 | 0.00 | 0.00 | 0.00 | 93 | 1019.0 |
| 20260508100725 | 1 | 267 | 1.6 | 1.6 | 0.00 | 0.00 | 0.00 | 93 | 1019.0 |
| 20260508100223 | 1 | 267 | 1.6 | 1.6 | 0.00 | 0.00 | 0.00 | 92 | 1018.8 |
| 20260508095719 | 1 | 267 | 3.2 | 3.2 | 0.00 | 0.00 | 0.00 | 91 | 1018.6 |
| 20260508095217 | 2 | 267 | 1.6 | 1.6 | 0.00 | 0.00 | 0.00 | 90 | 1018.9 |
| 20260508094713 | 2 | 267 | 1.6 | 1.6 | 0.00 | 0.00 | 0.00 | 85 | 1018.9 |
| 20260508094210 | 3 | 265 | 1.6 | 3.2 | 0.00 | 0.00 | 0.00 | 83 | 1018.8 |
| 20260508093707 | 3 | 256 | 3.2 | 4.8 | 0.00 | 0.00 | 0.00 | 82 | 1018.5 |
| 20260508093205 | 3 | 267 | 3.2 | 4.8 | 0.00 | 0.00 | 0.00 | 84 | 1018.6 |
| 20260508092702 | 2 | 262 | 3.2 | 3.2 | 0.00 | 0.00 | 0.00 | 90 | 1018.8 |
| 20260508092200 | 1 | 275 | 1.6 | 3.2 | 0.00 | 0.00 | 0.00 | 93 | 1018.7 |
| 20260508091657 | 1 | 289 | 0.0 | 0.0 | 0.00 | 0.00 | 0.00 | 92 | 1018.7 |
| 20260508091154 | 1 | 289 | 1.6 | 1.6 | 0.00 | 0.00 | 0.00 | 92 | 1018.6 |
| 20260508090652 | 1 | 289 | 1.6 | 3.2 | 0.00 | 0.00 | 0.00 | 91 | 1018.5 |
| 20260508090149 | 1 | 289 | 0.0 | 0.0 | 0.00 | 0.00 | 0.00 | 91 | 1018.4 |
| 20260508085640 | 1 | 289 | 0.0 | 0.0 | 0.00 | 0.00 | 0.00 | 91 | 1018.3 |
| 20260508085138 | 1 | 289 | 0.0 | 0.0 | 0.00 | 0.00 | 0.00 | 91 | 1018.2 |
| 20260508084634 | 1 | 289 | 0.0 | 0.0 | 0.00 | 0.00 | 0.00 | 91 | 1018.4 |
| 20260508084131 | 1 | 289 | 0.0 | 0.0 | 0.00 | 0.00 | 0.00 | 90 | 1018.1 |
| 20260508083628 | 1 | 289 | 0.0 | 0.0 | 0.00 | 0.00 | 0.00 | 89 | 1018.2 |
| 20260508083126 | 2 | 289 | 0.0 | 0.0 | 0.00 | 0.00 | 0.00 | 89 | 1018.3 |
| 20260508082621 | 2 | 289 | 0.0 | 0.0 | 0.00 | 0.00 | 0.00 | 90 | 1018.3 |
| 20260508082119 | 1 | 289 | 0.0 | 0.0 | 0.00 | 0.00 | 0.00 | 91 | 1018.4 |
| 20260508081616 | 2 | 289 | 0.0 | 0.0 | 0.00 | 0.00 | 0.00 | 91 | 1018.2 |
| 20260508081112 | 1 | 289 | 0.0 | 0.0 | 0.00 | 0.00 | 0.00 | 91 | 1018.3 |
| 20260508080610 | 1 | 289 | 0.0 | 0.0 | 0.00 | 0.00 | 0.00 | 90 | 1018.2 |
| 20260508080108 | 1 | 289 | 0.0 | 0.0 | 0.00 | 0.00 | 0.00 | 90 | 1018.3 |
| 20260508075603 | 1 | 289 | 0.0 | 0.0 | 0.00 | 0.00 | 0.00 | 90 | 1018.3 |
| 20260508075101 | 1 | 289 | 0.0 | 0.0 | 0.00 | 0.00 | 0.00 | 90 | 1018.4 |
| 20260508074559 | 1 | 289 | 0.0 | 0.0 | 0.00 | 0.00 | 0.00 | 89 | 1018.4 |
| 20260508074055 | 2 | 289 | 0.0 | 0.0 | 0.00 | 0.00 | 0.00 | 89 | 1018.3 |
| 20260508073553 | 2 | 289 | 0.0 | 0.0 | 0.00 | 0.00 | 0.00 | 90 | 1018.1 |
| 20260508073050 | 2 | 289 | 0.0 | 0.0 | 0.00 | 0.00 | 0.00 | 90 | 1018.1 |
| 20260508072545 | 2 | 289 | 0.0 | 0.0 | 0.00 | 0.00 | 0.00 | 89 | 1018.2 |
| 20260508072043 | 2 | 289 | 0.0 | 0.0 | 0.00 | 0.00 | 0.00 | 89 | 1018.0 |
| 20260508071541 | 2 | 289 | 0.0 | 0.0 | 0.00 | 0.00 | 0.00 | 89 | 1018.1 |
| 20260508071038 | 2 | 289 | 0.0 | 0.0 | 0.00 | 0.00 | 0.00 | 88 | 1018.1 |
| 20260508070536 | 2 | 289 | 0.0 | 0.0 | 0.00 | 0.00 | 0.00 | 88 | 1018.2 |
| 20260508070035 | 2 | 289 | 0.0 | 0.0 | 0.00 | 0.00 | 0.00 | 87 | 1018.2 |
| 20260508065531 | 2 | 289 | 0.0 | 0.0 | 0.00 | 0.00 | 0.00 | 86 | 1018.0 |
| 20260508065029 | 2 | 289 | 0.0 | 0.0 | 0.00 | 0.00 | 0.00 | 86 | 1018.3 |
| 20260508064527 | 2 | 289 | 0.0 | 0.0 | 0.00 | 0.00 | 0.00 | 86 | 1018.2 |
| 20260508064024 | 2 | 289 | 0.0 | 0.0 | 0.00 | 0.00 | 0.00 | 85 | 1018.3 |
| 20260508063521 | 2 | 289 | 0.0 | 0.0 | 0.00 | 0.00 | 0.00 | 85 | 1018.3 |
| 20260508063019 | 2 | 289 | 0.0 | 0.0 | 0.00 | 0.00 | 0.00 | 84 | 1018.4 |
| 20260508062516 | 2 | 289 | 0.0 | 0.0 | 0.00 | 0.00 | 0.00 | 82 | 1018.5 |
| 20260508062013 | 3 | 289 | 0.0 | 0.0 | 0.00 | 0.00 | 0.00 | 81 | 1018.4 |
| 20260508061511 | 3 | 289 | 0.0 | 0.0 | 0.00 | 0.00 | 0.00 | 78 | 1018.5 |
| 20260508061007 | 4 | 289 | 0.0 | 0.0 | 0.00 | 0.00 | 0.00 | 77 | 1018.6 |
| 20260508060504 | 5 | 289 | 0.0 | 1.6 | 0.00 | 0.00 | 0.00 | 76 | 1018.6 |
| 20260508060001 | 5 | 289 | 1.6 | 3.2 | 0.00 | 0.00 | 0.00 | 74 | 1018.5 |
| 20260508055457 | 5 | 297 | 3.2 | 3.2 | 0.00 | 0.00 | 0.00 | 74 | 1018.5 |
| 20260508054953 | 5 | 301 | 1.6 | 4.8 | 0.00 | 0.00 | 0.00 | 74 | 1018.6 |
| 20260508054450 | 5 | 271 | 3.2 | 6.4 | 0.00 | 0.00 | 0.00 | 73 | 1018.3 |
| 20260508053947 | 5 | 308 | 0.0 | 0.0 | 0.00 | 0.00 | 0.00 | 74 | 1018.3 |
| 20260508053444 | 5 | 308 | 3.2 | 6.4 | 0.00 | 0.00 | 0.00 | 74 | 1018.4 |
| 20260508052942 | 5 | 291 | 1.6 | 3.2 | 0.00 | 0.00 | 0.00 | 74 | 1018.1 |
| 20260508052439 | 5 | 277 | 3.2 | 4.8 | 0.00 | 0.00 | 0.00 | 74 | 1018.3 |
| 20260508051936 | 5 | 294 | 3.2 | 4.8 | 0.00 | 0.00 | 0.00 | 75 | 1018.3 |
| 20260508051431 | 5 | 316 | 4.8 | 4.8 | 0.00 | 0.00 | 0.00 | 75 | 1018.1 |
| 20260508050927 | 5 | 294 | 4.8 | 6.4 | 0.00 | 0.00 | 0.00 | 76 | 1018.0 |
| 20260508050424 | 5 | 291 | 3.2 | 4.8 | 0.00 | 0.00 | 0.00 | 76 | 1018.0 |
| 20260508045920 | 5 | 298 | 3.2 | 4.8 | 0.00 | 0.00 | 0.00 | 77 | 1018.0 |
| 20260508045418 | 5 | 303 | 3.2 | 4.8 | 0.00 | 0.00 | 0.00 | 77 | 1018.0 |
| 20260508044916 | 5 | 308 | 3.2 | 4.8 | 0.00 | 0.00 | 0.00 | 76 | 1018.0 |
| 20260508044413 | 5 | 306 | 3.2 | 6.4 | 0.00 | 0.00 | 0.00 | 76 | 1018.0 |
| 20260508043908 | 5 | 311 | 4.8 | 4.8 | 0.00 | 0.00 | 0.00 | 76 | 1017.7 |
| 20260508043406 | 5 | 296 | 3.2 | 4.8 | 0.00 | 0.00 | 0.00 | 77 | 1017.9 |
| 20260508042902 | 5 | 301 | 3.2 | 4.8 | 0.00 | 0.00 | 0.00 | 79 | 1018.0 |
| 20260508042400 | 5 | 300 | 3.2 | 3.2 | 0.00 | 0.00 | 0.00 | 79 | 1018.0 |
| 20260508041856 | 5 | 305 | 1.6 | 3.2 | 0.00 | 0.00 | 0.00 | 78 | 1018.0 |
| 20260508041353 | 5 | 306 | 3.2 | 3.2 | 0.00 | 0.00 | 0.00 | 78 | 1018.0 |
| 20260508040849 | 6 | 297 | 3.2 | 3.2 | 0.00 | 0.00 | 0.00 | 77 | 1017.7 |
| 20260508040347 | 6 | 292 | 1.6 | 6.4 | 0.00 | 0.00 | 0.00 | 76 | 1017.6 |
| 20260508035844 | 6 | 307 | 3.2 | 4.8 | 0.00 | 0.00 | 0.00 | 77 | 1017.6 |
| 20260508035341 | 6 | 301 | 4.8 | 4.8 | 0.00 | 0.00 | 0.00 | 77 | 1017.7 |
| 20260508034838 | 6 | 290 | 3.2 | 6.4 | 0.00 | 0.00 | 0.00 | 76 | 1017.5 |
| 20260508034335 | 6 | 281 | 4.8 | 9.7 | 0.00 | 0.00 | 0.00 | 75 | 1017.6 |
| 20260508033832 | 6 | 291 | 3.2 | 6.4 | 0.00 | 0.00 | 0.00 | 76 | 1017.5 |
| 20260508033330 | 7 | 303 | 3.2 | 6.4 | 0.00 | 0.00 | 0.00 | 75 | 1017.7 |
| 20260508032827 | 7 | 299 | 6.4 | 6.4 | 0.00 | 0.00 | 0.00 | 75 | 1017.7 |
| 20260508032325 | 7 | 280 | 4.8 | 6.4 | 0.00 | 0.00 | 0.00 | 75 | 1017.6 |
| 20260508031821 | 7 | 305 | 4.8 | 6.4 | 0.00 | 0.00 | 0.00 | 74 | 1017.4 |
| 20260508031318 | 7 | 294 | 4.8 | 6.4 | 0.00 | 0.00 | 0.00 | 75 | 1017.5 |
| 20260508030814 | 7 | 295 | 3.2 | 4.8 | 0.00 | 0.00 | 0.00 | 76 | 1017.6 |
| 20260508030312 | 7 | 306 | 3.2 | 4.8 | 0.00 | 0.00 | 0.00 | 76 | 1017.5 |
| 20260508025808 | 7 | 294 | 3.2 | 4.8 | 0.00 | 0.00 | 0.00 | 76 | 1017.4 |
| 20260508025306 | 7 | 299 | 4.8 | 4.8 | 0.00 | 0.00 | 0.00 | 76 | 1017.4 |
| 20260508024801 | 7 | 297 | 3.2 | 3.2 | 0.00 | 0.00 | 0.00 | 77 | 1017.2 |
| 20260508024258 | 7 | 296 | 3.2 | 4.8 | 0.00 | 0.00 | 0.00 | 75 | 1017.0 |
| 20260508023755 | 7 | 295 | 3.2 | 9.7 | 0.00 | 0.00 | 0.00 | 74 | 1017.1 |
| 20260508023252 | 7 | 303 | 4.8 | 6.4 | 0.00 | 0.00 | 0.00 | 74 | 1017.2 |
| 20260508022748 | 7 | 290 | 4.8 | 9.7 | 0.00 | 0.00 | 0.00 | 73 | 1017.1 |
| 20260508022245 | 7 | 296 | 4.8 | 6.4 | 0.00 | 0.00 | 0.00 | 74 | 1017.1 |
| 20260508021742 | 7 | 293 | 6.4 | 6.4 | 0.00 | 0.00 | 0.00 | 75 | 1016.8 |
| 20260508021237 | 7 | 296 | 3.2 | 4.8 | 0.00 | 0.00 | 0.00 | 76 | 1017.0 |
| 20260508020735 | 7 | 299 | 4.8 | 4.8 | 0.00 | 0.00 | 0.00 | 76 | 1016.8 |
| 20260508020232 | 7 | 301 | 3.2 | 4.8 | 0.00 | 0.00 | 0.00 | 75 | 1016.8 |
| 20260508015729 | 7 | 301 | 4.8 | 4.8 | 0.00 | 0.00 | 0.00 | 75 | 1016.7 |
| 20260508015226 | 8 | 299 | 3.2 | 4.8 | 0.00 | 0.00 | 0.00 | 74 | 1016.7 |
| 20260508014723 | 8 | 297 | 4.8 | 6.4 | 0.00 | 0.00 | 0.00 | 73 | 1016.6 |
| 20260508014220 | 8 | 294 | 6.4 | 6.4 | 0.00 | 0.00 | 0.00 | 74 | 1016.5 |
| 20260508013715 | 8 | 298 | 4.8 | 6.4 | 0.00 | 0.00 | 0.00 | 74 | 1016.5 |
| 20260508013212 | 8 | 292 | 3.2 | 6.4 | 0.00 | 0.00 | 0.00 | 74 | 1016.5 |
| 20260508012710 | 8 | 309 | 4.8 | 6.4 | 0.00 | 0.00 | 0.00 | 73 | 1016.3 |
| 20260508012206 | 8 | 303 | 4.8 | 4.8 | 0.00 | 0.00 | 0.00 | 74 | 1016.3 |
| 20260508011705 | 8 | 300 | 3.2 | 6.4 | 0.00 | 0.00 | 0.00 | 74 | 1016.1 |
| 20260508011202 | 8 | 296 | 4.8 | 4.8 | 0.00 | 0.00 | 0.00 | 73 | 1016.2 |
| 20260508010658 | 8 | 294 | 4.8 | 4.8 | 0.00 | 0.00 | 0.00 | 71 | 1016.1 |
| 20260508010156 | 8 | 326 | 6.4 | 9.7 | 0.00 | 0.00 | 0.00 | 70 | 1016.0 |
| 20260508005653 | 9 | 284 | 3.2 | 4.8 | 0.00 | 0.00 | 0.00 | 70 | 1016.1 |
| 20260508005150 | 9 | 288 | 4.8 | 9.7 | 0.00 | 0.00 | 0.00 | 69 | 1015.9 |
| 20260508004646 | 9 | 315 | 6.4 | 12.9 | 0.00 | 0.00 | 0.00 | 70 | 1016.0 |
| 20260508004142 | 8 | 319 | 6.4 | 9.7 | 0.00 | 0.00 | 0.00 | 72 | 1015.9 |
| 20260508003639 | 9 | 312 | 3.2 | 4.8 | 0.00 | 0.00 | 0.00 | 73 | 1015.9 |
| 20260508003136 | 9 | 316 | 3.2 | 4.8 | 0.00 | 0.00 | 0.00 | 69 | 1015.7 |
| 20260508002632 | 10 | 312 | 3.2 | 6.4 | 0.00 | 0.00 | 0.00 | 69 | 1015.7 |
| 20260508002131 | 10 | 305 | 4.8 | 4.8 | 0.00 | 0.00 | 0.00 | 68 | 1015.8 |
| 20260508001625 | 10 | 292 | 3.2 | 6.4 | 0.00 | 0.00 | 0.00 | 66 | 1015.8 |
| 20260508001122 | 10 | 306 | 4.8 | 4.8 | 0.00 | 0.00 | 0.00 | 67 | 1015.6 |
| 20260508000618 | 10 | 306 | 4.8 | 11.3 | 0.00 | 0.00 | 0.00 | 65 | 1015.6 |
| 20260508000115 | 11 | 315 | 11.3 | 12.9 | 0.00 | 0.00 | 0.00 | 63 | 1015.5 |
| 20260507235612 | 11 | 318 | 9.7 | 17.7 | 0.00 | 0.00 | 0.00 | 63 | 1015.6 |
| 20260507235110 | 11 | 324 | 9.7 | 12.9 | 0.00 | 0.00 | 0.00 | 64 | 1015.5 |
| 20260507234606 | 11 | 317 | 12.9 | 16.1 | 0.00 | 0.00 | 0.00 | 62 | 1015.5 |
| 20260507234102 | 11 | 305 | 9.7 | 12.9 | 0.00 | 0.00 | 0.00 | 64 | 1015.4 |
| 20260507233559 | 11 | 310 | 8.0 | 12.9 | 0.00 | 0.00 | 0.00 | 64 | 1015.4 |
| 20260507233058 | 11 | 319 | 8.0 | 14.5 | 0.00 | 0.00 | 0.00 | 65 | 1015.3 |
| 20260507232553 | 11 | 304 | 9.7 | 14.5 | 0.00 | 0.00 | 0.00 | 64 | 1015.4 |
| 20260507232051 | 11 | 293 | 8.0 | 16.1 | 0.00 | 0.00 | 0.00 | 63 | 1015.5 |
| 20260507231547 | 11 | 318 | 9.7 | 14.5 | 0.00 | 0.00 | 0.00 | 63 | 1015.4 |
| 20260507231045 | 11 | 281 | 6.4 | 17.7 | 0.00 | 0.00 | 0.00 | 64 | 1015.2 |
| 20260507230541 | 12 | 290 | 11.3 | 14.5 | 0.00 | 0.00 | 0.00 | 64 | 1015.2 |
| 20260507230038 | 12 | 301 | 8.0 | 14.5 | 0.00 | 0.00 | 0.00 | 61 | 1015.3 |
| 20260507225533 | 12 | 293 | 14.5 | 17.7 | 0.00 | 0.00 | 0.00 | 61 | 1015.1 |
| 20260507225030 | 12 | 308 | 11.3 | 16.1 | 0.00 | 0.00 | 0.00 | 60 | 1015.1 |
| 20260507224525 | 13 | 303 | 4.8 | 14.5 | 0.00 | 0.00 | 0.00 | 61 | 1015.1 |
| 20260507224022 | 13 | 325 | 9.7 | 14.5 | 0.00 | 0.00 | 0.00 | 61 | 1015.2 |
| 20260507223518 | 12 | 320 | 8.0 | 17.7 | 0.00 | 0.00 | 0.00 | 59 | 1014.9 |
| 20260507223016 | 13 | 293 | 12.9 | 14.5 | 0.00 | 0.00 | 0.00 | 61 | 1014.8 |
| 20260507222513 | 12 | 303 | 17.7 | 22.5 | 0.00 | 0.00 | 0.00 | 63 | 1014.9 |
| 20260507222009 | 12 | 325 | 8.0 | 22.5 | 0.00 | 0.00 | 0.00 | 62 | 1015.1 |
| 20260507221505 | 12 | 316 | 12.9 | 20.9 | 0.00 | 0.00 | 0.00 | 63 | 1014.8 |
| 20260507221002 | 12 | 319 | 14.5 | 20.9 | 0.00 | 0.00 | 0.00 | 62 | 1014.7 |
| 20260507220500 | 12 | 307 | 14.5 | 29.0 | 0.00 | 0.00 | 0.00 | 60 | 1014.7 |
| 20260507215956 | 13 | 343 | 4.8 | 16.1 | 0.00 | 0.00 | 0.00 | 62 | 1014.5 |
| 20260507215452 | 13 | 311 | 14.5 | 16.1 | 0.00 | 0.00 | 0.00 | 61 | 1014.5 |
| 20260507214950 | 13 | 320 | 11.3 | 16.1 | 0.00 | 0.00 | 0.00 | 66 | 1014.5 |
| 20260507214448 | 12 | 301 | 9.7 | 17.7 | 0.00 | 0.00 | 0.00 | 64 | 1014.6 |
| 20260507213943 | 12 | 296 | 14.5 | 20.9 | 0.00 | 0.00 | 0.00 | 65 | 1014.6 |
| 20260507213440 | 12 | 307 | 12.9 | 14.5 | 0.00 | 0.00 | 0.00 | 64 | 1014.4 |
| 20260507212937 | 12 | 282 | 8.0 | 11.3 | 0.00 | 0.00 | 0.00 | 67 | 1014.6 |
| 20260507212432 | 12 | 310 | 12.9 | 12.9 | 0.00 | 0.00 | 0.00 | 66 | 1014.5 |
| 20260507211930 | 12 | 306 | 8.0 | 16.1 | 0.00 | 0.00 | 0.00 | 68 | 1014.4 |
| 20260507211426 | 12 | 299 | 6.4 | 9.7 | 0.00 | 0.00 | 0.00 | 69 | 1014.2 |
| 20260507210923 | 12 | 314 | 6.4 | 11.3 | 0.00 | 0.00 | 0.00 | 68 | 1014.2 |
| 20260507210420 | 12 | 307 | 9.7 | 16.1 | 0.00 | 0.00 | 0.00 | 68 | 1014.1 |
| 20260507205917 | 12 | 320 | 14.5 | 17.7 | 0.00 | 0.00 | 0.00 | 65 | 1014.1 |
| 20260507205414 | 12 | 292 | 14.5 | 20.9 | 0.00 | 0.00 | 0.00 | 65 | 1014.2 |
| 20260507204910 | 11 | 316 | 9.7 | 24.1 | 0.00 | 0.00 | 0.00 | 67 | 1014.1 |
| 20260507204406 | 11 | 303 | 12.9 | 17.7 | 0.00 | 0.00 | 0.00 | 67 | 1014.3 |
| 20260507203904 | 11 | 311 | 14.5 | 17.7 | 0.00 | 0.00 | 0.00 | 68 | 1014.2 |
| 20260507203402 | 11 | 291 | 12.9 | 20.9 | 0.00 | 0.00 | 0.00 | 67 | 1014.3 |
| 20260507202858 | 12 | 286 | 12.9 | 16.1 | 0.00 | 0.00 | 0.00 | 68 | 1014.4 |
| 20260507202355 | 12 | 279 | 8.0 | 17.7 | 0.00 | 0.00 | 0.00 | 67 | 1014.3 |
| 20260507201850 | 12 | 294 | 17.7 | 20.9 | 0.00 | 0.00 | 0.00 | 68 | 1014.3 |
| 20260507201345 | 12 | 350 | 11.3 | 17.7 | 0.00 | 0.00 | 0.00 | 67 | 1014.5 |
| 20260507200842 | 11 | 315 | 12.9 | 16.1 | 0.00 | 0.00 | 0.00 | 72 | 1014.7 |
| 20260507200338 | 11 | 297 | 11.3 | 16.1 | 0.00 | 0.00 | 0.00 | 70 | 1014.7 |
| 20260507195835 | 11 | 314 | 16.1 | 22.5 | 0.00 | 0.00 | 0.00 | 70 | 1014.8 |
| 20260507195332 | 11 | 281 | 4.8 | 12.9 | 0.00 | 0.00 | 0.00 | 71 | 1014.6 |
| 20260507194829 | 11 | 343 | 12.9 | 16.1 | 0.00 | 0.00 | 0.00 | 71 | 1014.6 |
| 20260507194325 | 11 | 276 | 8.0 | 27.4 | 0.00 | 0.00 | 0.00 | 72 | 1014.5 |
| 20260507193822 | 11 | 295 | 17.7 | 20.9 | 0.00 | 0.00 | 0.00 | 68 | 1014.8 |
| 20260507193319 | 11 | 309 | 11.3 | 16.1 | 0.00 | 0.00 | 0.00 | 70 | 1014.6 |
| 20260507192815 | 11 | 319 | 3.2 | 14.5 | 0.00 | 0.00 | 0.00 | 70 | 1014.8 |
| 20260507192312 | 11 | 319 | 16.1 | 20.9 | 0.00 | 0.00 | 0.00 | 70 | 1014.8 |
| 20260507191808 | 12 | 326 | 9.7 | 14.5 | 0.00 | 0.00 | 0.00 | 71 | 1014.6 |
| 20260507191304 | 11 | 290 | 9.7 | 12.9 | 0.00 | 0.00 | 0.00 | 69 | 1014.8 |
| 20260507190802 | 11 | 329 | 8.0 | 14.5 | 0.00 | 0.00 | 0.00 | 68 | 1014.9 |
| 20260507190300 | 11 | 312 | 6.4 | 12.9 | 0.00 | 0.00 | 0.00 | 70 | 1015.1 |
| 20260507185758 | 12 | 327 | 12.9 | 20.9 | 0.00 | 0.00 | 0.00 | 68 | 1014.9 |
| 20260507185254 | 13 | 39 | 11.3 | 14.5 | 0.00 | 0.00 | 0.00 | 64 | 1014.9 |
| 20260507184752 | 12 | 281 | 9.7 | 17.7 | 0.00 | 0.00 | 0.00 | 66 | 1015.1 |
| 20260507184250 | 12 | 285 | 8.0 | 14.5 | 0.00 | 0.00 | 0.00 | 66 | 1015.2 |
| 20260507183747 | 12 | 315 | 9.7 | 12.9 | 0.00 | 0.00 | 0.00 | 66 | 1015.2 |
| 20260507183243 | 12 | 325 | 6.4 | 12.9 | 0.00 | 0.00 | 0.00 | 67 | 1014.9 |
| 20260507182741 | 12 | 4 | 8.0 | 11.3 | 0.00 | 0.00 | 0.00 | 65 | 1014.9 |
| 20260507182236 | 12 | 294 | 3.2 | 9.7 | 0.00 | 0.00 | 0.00 | 70 | 1014.9 |
| 20260507181733 | 12 | 296 | 9.7 | 12.9 | 0.00 | 0.00 | 0.00 | 69 | 1014.7 |
| 20260507181229 | 12 | 294 | 9.7 | 16.1 | 0.00 | 0.00 | 0.00 | 67 | 1014.8 |
| 20260507180726 | 11 | 327 | 9.7 | 14.5 | 0.00 | 0.00 | 0.00 | 68 | 1015.1 |
| 20260507180223 | 11 | 335 | 8.0 | 11.3 | 0.00 | 0.00 | 0.00 | 70 | 1015.1 |
| 20260507175718 | 11 | 303 | 12.9 | 17.7 | 0.00 | 0.00 | 0.00 | 69 | 1015.2 |
| 20260507175215 | 11 | 347 | 9.7 | 12.9 | 0.00 | 0.00 | 0.00 | 71 | 1015.3 |
| 20260507174713 | 11 | 317 | 9.7 | 17.7 | 0.00 | 0.00 | 0.00 | 69 | 1015.2 |
| 20260507174211 | 11 | 296 | 8.0 | 14.5 | 0.00 | 0.00 | 0.00 | 68 | 1015.2 |
| 20260507173708 | 11 | 339 | 6.4 | 14.5 | 0.00 | 0.00 | 0.00 | 72 | 1014.9 |
| 20260507173205 | 11 | 330 | 9.7 | 14.5 | 0.00 | 0.00 | 0.00 | 69 | 1015.3 |
| 20260507172701 | 12 | 354 | 9.7 | 14.5 | 0.00 | 0.00 | 0.00 | 69 | 1015.1 |
| 20260507172158 | 11 | 332 | 11.3 | 12.9 | 0.00 | 0.00 | 0.00 | 71 | 1015.2 |
| 20260507171658 | 11 | 313 | 4.8 | 11.3 | 0.00 | 0.00 | 0.00 | 71 | 1015.2 |
| 20260507171156 | 11 | 329 | 9.7 | 17.7 | 0.00 | 0.00 | 0.00 | 70 | 1015.2 |
| 20260507170653 | 11 | 341 | 9.7 | 12.9 | 0.00 | 0.00 | 0.00 | 72 | 1015.4 |
| 20260507170150 | 11 | 308 | 11.3 | 12.9 | 0.00 | 0.00 | 0.00 | 70 | 1015.2 |
| 20260507165645 | 11 | 315 | 1.6 | 9.7 | 0.00 | 0.00 | 0.00 | 74 | 1015.3 |
| 20260507165142 | 11 | 290 | 12.9 | 17.7 | 0.00 | 0.00 | 0.00 | 73 | 1015.5 |
| 20260507164638 | 11 | 286 | 11.3 | 14.5 | 0.00 | 0.00 | 0.00 | 72 | 1015.4 |
| 20260507164135 | 11 | 307 | 6.4 | 16.1 | 0.00 | 0.00 | 0.00 | 70 | 1015.5 |
| 20260507163632 | 11 | 304 | 9.7 | 12.9 | 0.00 | 0.00 | 0.00 | 73 | 1015.5 |
| 20260507163130 | 11 | 7 | 1.6 | 9.7 | 0.00 | 0.00 | 0.00 | 73 | 1015.6 |
| 20260507162625 | 10 | 327 | 4.8 | 14.5 | 0.00 | 0.00 | 0.00 | 73 | 1015.4 |
| 20260507162122 | 10 | 306 | 6.4 | 9.7 | 0.00 | 0.00 | 0.00 | 75 | 1015.6 |
| 20260507161618 | 10 | 324 | 4.8 | 11.3 | 0.00 | 0.00 | 0.00 | 76 | 1015.7 |
| 20260507161115 | 10 | 303 | 9.7 | 12.9 | 0.00 | 0.00 | 0.00 | 74 | 1015.7 |
| 20260507160612 | 10 | 317 | 6.4 | 14.5 | 0.00 | 0.00 | 0.00 | 73 | 1015.8 |
| 20260507160108 | 11 | 259 | 8.0 | 12.9 | 0.00 | 0.00 | 0.00 | 71 | 1015.7 |
| 20260507155603 | 10 | 346 | 4.8 | 9.7 | 0.00 | 0.00 | 0.00 | 75 | 1015.9 |
| 20260507155100 | 10 | 2 | 8.0 | 12.9 | 0.00 | 0.00 | 0.00 | 73 | 1015.7 |
| 20260507154557 | 10 | 350 | 8.0 | 14.5 | 0.00 | 0.00 | 0.00 | 80 | 1015.7 |
| 20260507154054 | 10 | 332 | 6.4 | 11.3 | 0.00 | 0.00 | 0.00 | 78 | 1015.8 |
| 20260507153551 | 10 | 330 | 3.2 | 4.8 | 0.00 | 0.00 | 0.00 | 77 | 1015.7 |
| 20260507153047 | 10 | 341 | 4.8 | 11.3 | 0.00 | 0.00 | 0.00 | 79 | 1015.7 |
| 20260507152543 | 9 | 1 | 8.0 | 12.9 | 0.00 | 0.00 | 0.00 | 78 | 1015.9 |
| 20260507152040 | 9 | 344 | 8.0 | 11.3 | 0.00 | 0.00 | 0.00 | 77 | 1015.7 |
| 20260507151536 | 10 | 326 | 9.7 | 12.9 | 0.00 | 0.00 | 0.00 | 79 | 1015.9 |
| 20260507151033 | 10 | 10 | 6.4 | 9.7 | 0.00 | 0.00 | 0.00 | 79 | 1015.6 |
| 20260507150530 | 10 | 330 | 6.4 | 14.5 | 0.00 | 0.00 | 0.00 | 80 | 1015.8 |
| 20260507150027 | 10 | 20 | 6.4 | 11.3 | 0.00 | 0.00 | 0.00 | 78 | 1015.7 |
| 20260507145522 | 9 | 324 | 4.8 | 9.7 | 0.00 | 0.00 | 0.00 | 83 | 1015.9 |
| 20260507145020 | 8 | 344 | 4.8 | 12.9 | 0.00 | 0.00 | 0.00 | 82 | 1015.9 |
| 20260507144516 | 8 | 350 | 8.0 | 9.7 | 0.00 | 0.00 | 0.00 | 84 | 1016.0 |
| 20260507144014 | 8 | 341 | 3.2 | 6.4 | 0.00 | 0.00 | 0.00 | 86 | 1015.7 |
| 20260507143511 | 8 | 324 | 4.8 | 4.8 | 0.00 | 0.00 | 0.00 | 86 | 1015.8 |
| 20260507143008 | 8 | 343 | 6.4 | 12.9 | 0.00 | 0.00 | 0.00 | 86 | 1016.1 |
| 20260507142503 | 8 | 327 | 4.8 | 11.3 | 0.00 | 0.00 | 0.00 | 86 | 1016.0 |
| 20260507142001 | 7 | 334 | 3.2 | 6.4 | 0.00 | 0.00 | 0.00 | 87 | 1016.1 |
| 20260507141456 | 7 | 323 | 4.8 | 11.3 | 0.00 | 0.00 | 0.00 | 88 | 1016.2 |
| 20260507140953 | 7 | 348 | 9.7 | 11.3 | 0.00 | 0.00 | 0.00 | 88 | 1016.0 |
| 20260507140450 | 7 | 316 | 6.4 | 16.1 | 0.00 | 0.00 | 0.00 | 88 | 1016.2 |
| 20260507135948 | 7 | 326 | 6.4 | 9.7 | 0.00 | 0.00 | 0.00 | 90 | 1016.0 |
| 20260507135444 | 7 | 324 | 6.4 | 9.7 | 0.00 | 0.00 | 0.00 | 89 | 1016.1 |
| 20260507134942 | 7 | 351 | 4.8 | 12.9 | 0.00 | 0.00 | 0.00 | 90 | 1015.9 |
| 20260507134438 | 7 | 348 | 8.0 | 9.7 | 0.00 | 0.00 | 0.00 | 90 | 1016.2 |
| 20260507133934 | 7 | 315 | 4.8 | 11.3 | 0.00 | 0.00 | 0.00 | 91 | 1016.1 |
| 20260507133430 | 7 | 331 | 4.8 | 6.4 | 0.00 | 0.00 | 0.00 | 92 | 1016.5 |
| 20260507132929 | 7 | 321 | 6.4 | 6.4 | 0.00 | 0.00 | 0.00 | 93 | 1016.3 |
| 20260507132425 | 7 | 324 | 4.8 | 9.7 | 0.00 | 0.00 | 0.00 | 93 | 1016.2 |
| 20260507131921 | 7 | 331 | 4.8 | 6.4 | 0.00 | 0.00 | 0.00 | 94 | 1016.3 |
| 20260507131418 | 7 | 326 | 3.2 | 6.4 | 0.00 | 0.00 | 0.00 | 94 | 1016.5 |
| 20260507130915 | 7 | 319 | 3.2 | 9.7 | 0.00 | 0.00 | 0.00 | 94 | 1016.5 |
| 20260507130412 | 7 | 342 | 6.4 | 6.4 | 0.00 | 0.00 | 0.00 | 94 | 1016.3 |
| 20260507125911 | 7 | 333 | 4.8 | 6.4 | 0.00 | 0.00 | 0.00 | 94 | 1016.5 |
| 20260507125409 | 7 | 344 | 8.0 | 11.3 | 0.00 | 0.00 | 0.00 | 93 | 1016.3 |
| 20260507124906 | 7 | 332 | 9.7 | 11.3 | 0.00 | 0.00 | 0.00 | 93 | 1016.6 |
| 20260507124401 | 7 | 309 | 9.7 | 12.9 | 0.00 | 0.00 | 0.00 | 93 | 1016.6 |
| 20260507123900 | 7 | 314 | 8.0 | 11.3 | 0.00 | 0.00 | 0.00 | 94 | 1016.7 |
| 20260507123357 | 7 | 323 | 3.2 | 11.3 | 0.00 | 0.00 | 0.00 | 94 | 1016.3 |
| 20260507122853 | 7 | 338 | 6.4 | 6.4 | 0.00 | 0.00 | 0.00 | 94 | 1016.5 |
| 20260507122349 | 7 | 306 | 8.0 | 9.7 | 0.00 | 0.00 | 0.00 | 95 | 1016.7 |
| 20260507121845 | 7 | 314 | 8.0 | 11.3 | 0.00 | 0.00 | 0.00 | 95 | 1016.6 |
| 20260507121341 | 7 | 306 | 8.0 | 9.7 | 0.00 | 0.00 | 0.00 | 95 | 1016.3 |
| 20260507120838 | 7 | 325 | 6.4 | 11.3 | 0.00 | 0.00 | 0.00 | 95 | 1016.5 |
| 20260507120334 | 7 | 326 | 3.2 | 6.4 | 0.00 | 0.00 | 0.00 | 95 | 1015.8 |
| 20260507115830 | 7 | 311 | 9.7 | 11.3 | 0.00 | 0.00 | 0.00 | 96 | 1016.2 |
| 20260507115326 | 7 | 324 | 6.4 | 9.7 | 0.00 | 0.00 | 0.00 | 96 | 1016.1 |
| 20260507114822 | 7 | 319 | 4.8 | 4.8 | 0.00 | 0.00 | 0.00 | 97 | 1016.1 |
| 20260507114319 | 7 | 332 | 3.2 | 4.8 | 0.00 | 0.00 | 0.00 | 97 | 1016.0 |
| 20260507113817 | 7 | 347 | 8.0 | 9.7 | 0.00 | 0.00 | 0.00 | 97 | 1016.3 |
| 20260507113314 | 7 | 335 | 4.8 | 4.8 | 0.00 | 0.00 | 0.00 | 97 | 1016.0 |
| 20260507112811 | 7 | 333 | 4.8 | 6.4 | 0.00 | 0.00 | 0.00 | 97 | 1015.9 |
| 20260507112308 | 7 | 353 | 9.7 | 12.9 | 0.00 | 0.00 | 0.00 | 97 | 1016.1 |
| 20260507111806 | 7 | 340 | 4.8 | 6.4 | 0.00 | 0.00 | 0.00 | 97 | 1016.2 |
| 20260507111302 | 7 | 340 | 4.8 | 14.5 | 0.00 | 0.00 | 0.00 | 98 | 1016.0 |
| 20260507110758 | 7 | 335 | 4.8 | 6.4 | 0.00 | 0.00 | 0.00 | 99 | 1015.9 |
| 20260507110255 | 7 | 326 | 6.4 | 9.7 | 0.00 | 0.00 | 0.00 | 99 | 1015.7 |
| 20260507105752 | 7 | 348 | 4.8 | 4.8 | 0.00 | 0.00 | 0.00 | 99 | 1015.6 |
| 20260507105248 | 7 | 328 | 3.2 | 6.4 | 0.00 | 0.00 | 0.00 | 99 | 1015.7 |
| 20260507104745 | 7 | 321 | 3.2 | 4.8 | 0.00 | 0.00 | 0.00 | 99 | 1015.7 |
| 20260507104242 | 7 | 353 | 4.8 | 6.4 | 0.00 | 0.00 | 0.00 | 99 | 1015.3 |
| 20260507103738 | 7 | 333 | 1.6 | 3.2 | 0.00 | 0.00 | 0.00 | 99 | 1015.4 |
| 20260507103234 | 7 | 343 | 4.8 | 4.8 | 0.00 | 0.00 | 0.00 | 99 | 1015.6 |
| 20260507102730 | 7 | 336 | 3.2 | 4.8 | 0.00 | 0.00 | 0.00 | 99 | 1015.5 |